Change the Weather History Date:

Tuesday, June 3, 2014

  Actual Average (KAQP) Record (KAQP)
Temperature  
Mean Temperature 62 °F -  
Max Temperature 71 °F 71 °F 86 °F (2006)
Min Temperature 53 °F 50 °F 39 °F (1998)
Degree Days  
Heating Degree Days 3    
Growing Degree Days 12 (Base 50)    
Moisture  
Dew Point 53 °F    
Average Humidity 70    
Maximum Humidity 94    
Minimum Humidity 50    
Precipitation  
Precipitation 0.00 in - - ()
Sea Level Pressure  
Sea Level Pressure 29.92 in    
Wind  
Wind Speed 4 mph (SSW)    
Max Wind Speed 8 mph    
Max Gust Speed -    
Visibility 10 miles    
Events      
Averages and records for this station are not official NWS values.
T = Trace of Precipitation, MM = Missing Value Source: NWS Daily Summary

Daily Weather History Graph

Daily Weather History Graph

Search for Another Location

Airport or City:

Trip Planner

Search our weather history database for the weather conditions in past years. The results will help you decide how hot, cold, wet, or windy it might be!

Date:

Astronomy

Jun. 03, 2014 Rise Set
Actual Time 5:40 AM CDT 9:08 PM CDT
Civil Twilight 5:03 AM CDT 9:45 PM CDT
Nautical Twilight 4:14 AM CDT 10:33 PM CDT
Astronomical Twilight 3:12 AM CDT 11:36 PM CDT
Moon 11:14 AM CDT (6/3) 12:27 AM CDT (6/3)
Length of Visible Light 16h 41m
Length of Day
15h 28m
Waxing Crescent, 30% of the Moon is Illuminated
Jun 3
Waxing Crescent
Jun 5
First Quarter
Jun 12
Full
Jun 19
Last Quarter
Jun 27
New

Hourly Weather History & Observations

Time (CDT) Temp. Dew Point Humidity Pressure Visibility Wind Dir Wind Speed Gust Speed Precip Events Conditions
12:14 AM 60.8 °F 51.8 °F 72% 29.94 in 10.0 mi West 4.6 mph - N/A   Mostly Cloudy
12:34 AM 59.0 °F 53.6 °F 82% 29.94 in 10.0 mi WSW 4.6 mph - N/A   Scattered Clouds
12:54 AM 57.2 °F 53.6 °F 88% 29.95 in 10.0 mi WSW 4.6 mph - N/A   Scattered Clouds
1:13 AM 57.2 °F 53.6 °F 88% 29.94 in 10.0 mi West 4.6 mph - N/A   Clear
1:34 AM 57.2 °F 53.6 °F 88% 29.94 in 10.0 mi West 6.9 mph - N/A   Clear
1:54 AM 57.2 °F 53.6 °F 88% 29.95 in 10.0 mi West 4.6 mph - N/A   Clear
2:13 AM 57.2 °F 53.6 °F 88% 29.95 in 10.0 mi WNW 6.9 mph - N/A   Clear
2:34 AM 57.2 °F 53.6 °F 88% 29.95 in 10.0 mi WNW 8.1 mph - N/A   Clear
2:54 AM 57.2 °F 53.6 °F 88% 29.95 in 10.0 mi WNW 5.8 mph - N/A   Clear
3:13 AM 57.2 °F 53.6 °F 88% 29.94 in 10.0 mi NW 5.8 mph - N/A   Clear
3:34 AM 55.4 °F 51.8 °F 88% 29.95 in 10.0 mi WNW 3.5 mph - N/A   Clear
3:54 AM 55.4 °F 51.8 °F 88% 29.95 in 10.0 mi Calm Calm - N/A   Clear
4:13 AM 55.4 °F 51.8 °F 88% 29.95 in 10.0 mi West 3.5 mph - N/A   Clear
4:34 AM 55.4 °F 51.8 °F 88% 29.95 in 10.0 mi NW 3.5 mph - N/A   Clear
4:54 AM 53.6 °F 51.8 °F 94% 29.94 in 10.0 mi NW 3.5 mph - N/A   Clear
5:13 AM 53.6 °F 51.8 °F 94% 29.94 in 10.0 mi Calm Calm - N/A   Clear
5:34 AM 53.6 °F 51.8 °F 94% 29.93 in 10.0 mi NNW 3.5 mph - N/A   Clear
5:54 AM 53.6 °F 51.8 °F 94% 29.95 in 10.0 mi WNW 3.5 mph - N/A   Clear
6:13 AM 53.6 °F 51.8 °F 94% 29.96 in 10.0 mi WSW 3.5 mph - N/A   Clear
6:34 AM 53.6 °F 51.8 °F 94% 29.97 in 10.0 mi SW 3.5 mph - N/A   Clear
6:54 AM 53.6 °F 51.8 °F 94% 29.97 in 10.0 mi Calm Calm - N/A   Clear
7:13 AM 55.4 °F 51.8 °F 88% 29.97 in 10.0 mi Calm Calm - N/A   Clear
7:34 AM 57.2 °F 51.8 °F 82% 29.97 in 10.0 mi West 4.6 mph - N/A   Clear
7:54 AM 60.8 °F 53.6 °F 77% 29.98 in 10.0 mi WSW 3.5 mph - N/A   Clear
8:13 AM 60.8 °F 53.6 °F 77% 29.98 in 10.0 mi WSW 3.5 mph - N/A   Clear
8:34 AM 60.8 °F 53.6 °F 77% 29.98 in 10.0 mi Calm Calm - N/A   Clear
8:54 AM 62.6 °F 53.6 °F 72% 29.98 in 10.0 mi Calm Calm - N/A   Clear
9:14 AM 64.4 °F 51.8 °F 64% 29.99 in 10.0 mi Calm Calm - N/A   Clear
9:34 AM 64.4 °F 51.8 °F 64% 30.00 in 10.0 mi West 4.6 mph - N/A   Clear
9:54 AM 64.4 °F 51.8 °F 64% 29.99 in 10.0 mi WNW 4.6 mph - N/A   Clear
10:14 AM 66.2 °F 53.6 °F 64% 29.97 in 10.0 mi Calm Calm - N/A   Clear
10:33 AM 66.2 °F 51.8 °F 60% 29.97 in 10.0 mi Calm Calm - N/A   Clear
10:54 AM 66.2 °F 51.8 °F 60% 29.97 in 10.0 mi SW 3.5 mph - N/A   Clear
11:14 AM 68.0 °F 53.6 °F 60% 29.96 in 10.0 mi South 4.6 mph - N/A   Clear
11:33 AM 68.0 °F 53.6 °F 60% 29.96 in 10.0 mi South 5.8 mph - N/A   Scattered Clouds
11:54 AM 69.8 °F 51.8 °F 53% 29.95 in 10.0 mi Calm Calm - N/A   Clear
12:14 PM 69.8 °F 51.8 °F 53% 29.94 in 10.0 mi SSE 4.6 mph - N/A   Clear
12:33 PM 69.8 °F 51.8 °F 53% 29.94 in 10.0 mi West 4.6 mph - N/A   Scattered Clouds
12:54 PM 69.8 °F 53.6 °F 56% 29.94 in 10.0 mi South 6.9 mph - N/A   Clear
1:14 PM 69.8 °F 51.8 °F 53% 29.94 in 10.0 mi SSE 5.8 mph - N/A   Clear
1:34 PM 69.8 °F 53.6 °F 56% 29.94 in 10.0 mi South 4.6 mph - N/A   Clear
1:54 PM 69.8 °F 53.6 °F 56% - 10.0 mi SSW 3.5 mph - N/A   Clear
2:14 PM 69.8 °F 53.6 °F 56% - 10.0 mi Calm Calm - N/A   Clear
2:54 PM 69.8 °F 51.8 °F 53% 29.90 in 10.0 mi ESE 3.5 mph - N/A   Clear
3:14 PM 69.8 °F 53.6 °F 56% 29.90 in 10.0 mi SE 3.5 mph - N/A   Clear
3:33 PM 69.8 °F 51.8 °F 53% 29.90 in 10.0 mi ESE 3.5 mph - N/A   Clear
3:54 PM 69.8 °F 53.6 °F 56% 29.91 in 10.0 mi SSE 6.9 mph - N/A   Clear
4:14 PM 71.6 °F 51.8 °F 50% 29.90 in 10.0 mi SSE 4.6 mph - N/A   Clear
4:33 PM 71.6 °F 53.6 °F 53% 29.89 in 10.0 mi South 6.9 mph - N/A   Clear
4:54 PM 71.6 °F 53.6 °F 53% 29.87 in 10.0 mi SE 4.6 mph - N/A   Clear
5:14 PM 71.6 °F 53.6 °F 53% 29.87 in 10.0 mi ESE 6.9 mph - N/A   Clear
5:33 PM 71.6 °F 53.6 °F 53% 29.86 in 10.0 mi SE 5.8 mph - N/A   Clear
5:54 PM 71.6 °F 53.6 °F 53% 29.85 in 10.0 mi SE 3.5 mph - N/A   Clear
6:14 PM 71.6 °F 53.6 °F 53% 29.84 in 10.0 mi ESE 6.9 mph - N/A   Clear
6:33 PM 71.6 °F 51.8 °F 50% 29.83 in 10.0 mi Calm Calm - N/A   Clear
6:54 PM 71.6 °F 53.6 °F 53% 29.83 in 10.0 mi East 6.9 mph - N/A   Clear
7:14 PM 69.8 °F 51.8 °F 53% 29.82 in 10.0 mi ENE 4.6 mph - N/A   Clear
7:34 PM 69.8 °F 53.6 °F 56% 29.82 in 10.0 mi ENE 4.6 mph - N/A   Clear
7:54 PM 69.8 °F 53.6 °F 56% 29.82 in 10.0 mi ENE 3.5 mph - N/A   Clear
8:13 PM 69.8 °F 55.4 °F 60% 29.83 in 10.0 mi ENE 3.5 mph - N/A   Clear
8:34 PM 68.0 °F 53.6 °F 60% 29.83 in 10.0 mi East 5.8 mph - N/A   Clear
8:54 PM 68.0 °F 53.6 °F 60% 29.82 in 10.0 mi East 6.9 mph - N/A   Clear
9:13 PM 66.2 °F 53.6 °F 64% 29.84 in 10.0 mi ESE 4.6 mph - N/A   Clear
9:34 PM 66.2 °F 53.6 °F 64% 29.87 in 10.0 mi SE 4.6 mph - N/A   Clear
10:13 PM 64.4 °F 55.4 °F 73% 29.89 in 10.0 mi South 4.6 mph - N/A   Clear
10:34 PM 64.4 °F 55.4 °F 73% 29.87 in 10.0 mi Calm Calm - N/A   Clear
10:53 PM 64.4 °F 55.4 °F 73% 29.86 in 10.0 mi Calm Calm - N/A   Clear
11:14 PM 64.4 °F 57.2 °F 77% 29.83 in 10.0 mi ESE 3.5 mph - N/A   Clear
11:34 PM 64.4 °F 55.4 °F 73% 29.83 in 10.0 mi Calm Calm - N/A   Clear